1 Minute Report
Date Time Wind Direction Wind Speed Wind Gust Wind Variable Altimeter Temperature Dewpoint Relative Humidity Visibility Ceiling Precip Present Weather Density Alt Wind Chill Heat Index
18/01/2014:552201218N/A30.0336(F), 2(C)27(F), -3(C)69%10CLRN/AN/AN/A28 FN/A8073
18/01/2014:502201318N/A30.0336(F), 2(C)27(F), -3(C)69%10CLRN/AN/AN/A27 FN/A8068
18/01/2014:452201217N/A30.0236(F), 2(C)27(F), -3(C)69%10CLRN/AN/AN/A28 FN/A8063
18/01/2014:4022012N/AN/A30.0236(F), 2(C)27(F), -3(C)69%10CLRN/AN/AN/A28 FN/A8058
18/01/2014:3522012N/AN/A30.0236(F), 2(C)27(F), -3(C)69%10CLRN/AN/AN/A28 FN/A8053
18/01/2014:3021012N/AN/A30.0236(F), 2(C)26(F), -3(C)69%10CLRN/AN/AN/A28 FN/A8048
18/01/2014:252101318N/A30.0236(F), 2(C)26(F), -3(C)69%10CLRN/AN/AN/A27 FN/A8043
18/01/2014:202101318N/A30.0135(F), 2(C)26(F), -3(C)69%10CLRN/AN/AN/A26 FN/A8038
18/01/2014:1521012N/AN/A30.0135(F), 2(C)26(F), -3(C)69%10CLRN/AN/AN/A27 FN/A8033
18/01/2014:1022011N/AN/A30.0135(F), 2(C)26(F), -3(C)69%10CLRN/AN/AN/A27 FN/A8028
18/01/2014:0521011N/AN/A30.0135(F), 2(C)26(F), -3(C)69%10CLRN/AN/AN/A27 FN/A8023
18/01/2014:002101115N/A30.0134(F), 1(C)26(F), -3(C)75%10CLRN/AN/AN/A26 FN/A8018
18/01/2013:552101115N/A30.0134(F), 1(C)26(F), -3(C)75%10CLRN/AN/AN/A26 FN/A8013
18/01/2013:502101015N/A30.0034(F), 1(C)26(F), -3(C)75%10CLRN/AN/AN/A26 FN/A8008
18/01/2013:4521011N/AN/A30.0034(F), 1(C)26(F), -3(C)75%10CLRN/AN/AN/A26 FN/A8003
18/01/2013:4021009N/AN/A30.0034(F), 1(C)26(F), -3(C)75%10CLRN/AN/AN/A27 FN/A7998
18/01/2013:3521010N/AN/A30.0034(F), 1(C)26(F), -3(C)75%10CLRN/AN/AN/A26 FN/A7993
18/01/2013:3021011N/AN/A30.0034(F), 1(C)26(F), -3(C)75%10CLRN/AN/AN/A26 FN/A7988
18/01/2013:2521012N/AN/A29.9934(F), 1(C)26(F), -3(C)75%10CLRN/AN/AN/A25 FN/A7983
18/01/2013:2021010N/AN/A29.9934(F), 1(C)26(F), -3(C)75%10CLRN/AN/AN/A26 FN/A7978
18/01/2013:1521009N/AN/A29.9933(F), 1(C)26(F), -3(C)75%10CLRN/AN/AN/A25 FN/A7973
18/01/2013:1021011N/AN/A29.9933(F), 1(C)26(F), -3(C)75%10CLRN/AN/AN/A24 FN/A7968
18/01/2013:052200915N/A29.9934(F), 1(C)26(F), -3(C)75%10CLRN/AN/AN/A27 FN/A7963
18/01/2013:002201115N/A29.9833(F), 1(C)26(F), -3(C)75%10CLRN/AN/AN/A24 FN/A7958
18/01/2012:5522010N/AN/A29.9834(F), 1(C)26(F), -3(C)75%10CLRN/AN/AN/A26 FN/A7953
18/01/2012:5022010N/AN/A29.9834(F), 1(C)26(F), -3(C)75%10CLRN/AN/AN/A26 FN/A7948
18/01/2012:4522011N/AN/A29.9834(F), 1(C)26(F), -3(C)75%10CLRN/AN/AN/A26 FN/A7943
18/01/2012:4022012N/AN/A29.9834(F), 1(C)26(F), -3(C)75%10CLRN/AN/AN/A25 FN/A7938
18/01/2012:3522011N/AN/A29.9834(F), 1(C)26(F), -3(C)75%10CLRN/AN/AN/A26 FN/A7933
18/01/2012:3022012N/AN/A29.9834(F), 1(C)26(F), -3(C)75%10CLRN/AN/AN/A25 FN/A7928
18/01/2012:2522012N/AN/A29.9834(F), 1(C)26(F), -3(C)75%10CLRN/AN/AN/A25 FN/A7923
18/01/2012:2021013N/AN/A29.9834(F), 1(C)26(F), -3(C)75%10CLRN/AN/AN/A25 FN/A7918
18/01/2012:1522012N/AN/A29.9834(F), 1(C)26(F), -3(C)75%10CLRN/AN/AN/A25 FN/A7913
18/01/2012:1022012N/AN/A29.9834(F), 1(C)26(F), -3(C)75%10CLRN/AN/AN/A25 FN/A7908
18/01/2012:052201319N/A29.9834(F), 1(C)26(F), -3(C)75%10CLRN/AN/AN/A25 FN/A7903
18/01/2012:002201319N/A29.9734(F), 1(C)26(F), -3(C)75%10CLRN/AN/AN/A25 FN/A7898
18/01/2011:552101317N/A29.9734(F), 1(C)26(F), -3(C)75%10CLRN/AN/AN/A25 FN/A7893
18/01/2011:502101317N/A29.9734(F), 1(C)26(F), -3(C)75%10CLRN/AN/AN/A25 FN/A7888
18/01/2011:452101217N/A29.9734(F), 1(C)26(F), -3(C)75%10CLRN/AN/AN/A25 FN/A7883
18/01/2011:402201117N/A29.9634(F), 1(C)26(F), -3(C)75%10CLRN/AN/AN/A26 FN/A7878
18/01/2011:352101319N/A29.9634(F), 1(C)26(F), -3(C)75%10CLRN/AN/AN/A25 FN/A7873
18/01/2011:302101319N/A29.9634(F), 1(C)26(F), -3(C)75%10CLRN/AN/AN/A25 FN/A7868
18/01/2011:2521012N/AN/A29.9634(F), 1(C)26(F), -3(C)75%10CLRN/AN/AN/A25 FN/A7863
18/01/2011:2021011N/AN/A29.9634(F), 1(C)26(F), -3(C)75%10CLRN/AN/AN/A26 FN/A7858
18/01/2011:1521011N/AN/A29.9634(F), 1(C)26(F), -3(C)75%10CLRN/AN/AN/A26 FN/A7853
18/01/2011:1021013N/AN/A29.9634(F), 1(C)26(F), -3(C)75%10CLRN/AN/AN/A25 FN/A7848
18/01/2011:052101116N/A29.9633(F), 1(C)26(F), -3(C)75%10CLRN/AN/AN/A24 FN/A7843
18/01/2011:002100916N/A29.9634(F), 1(C)26(F), -3(C)75%10CLRN/AN/AN/A27 FN/A7838
18/01/2010:552201016N/A29.9634(F), 1(C)26(F), -3(C)75%10CLRN/AN/AN/A26 FN/A7833
18/01/2010:502101216N/A29.9634(F), 1(C)26(F), -3(C)75%10CLRN/AN/AN/A25 FN/A7828
18/01/2010:4522011N/AN/A29.9534(F), 1(C)26(F), -3(C)75%10CLRN/AN/AN/A26 FN/A7823
18/01/2010:4022010N/AN/A29.9534(F), 1(C)26(F), -3(C)75%10CLRN/AN/AN/A26 FN/A7818
18/01/2010:3521011N/AN/A29.9534(F), 1(C)26(F), -3(C)75%10CLRN/AN/AN/A26 FN/A7813
18/01/2010:302101216N/A29.9534(F), 1(C)26(F), -3(C)75%10CLRN/AN/AN/A25 FN/A7808
18/01/2010:252101116N/A29.9534(F), 1(C)26(F), -3(C)75%10CLRN/AN/AN/A26 FN/A7803
18/01/2010:2022012N/AN/A29.9534(F), 1(C)26(F), -3(C)75%10CLRN/AN/AN/A25 FN/A7798
18/01/2010:1521012N/AN/A29.9534(F), 1(C)26(F), -3(C)75%10CLRN/AN/AN/A25 FN/A7793
18/01/2010:1021012N/AN/A29.9534(F), 1(C)26(F), -3(C)75%10CLRN/AN/AN/A25 FN/A7788
18/01/2010:0521011N/AN/A29.9534(F), 1(C)26(F), -3(C)75%10CLRN/AN/AN/A26 FN/A7783
18/01/2010:002201217N/A29.9534(F), 1(C)26(F), -3(C)75%10CLRN/AN/AN/A25 FN/A7778
18/01/2009:552201317N/A29.9534(F), 1(C)25(F), -4(C)69%10CLRN/AN/AN/A25 FN/A7773
18/01/2009:5021012N/AN/A29.9534(F), 1(C)25(F), -4(C)69%10CLRN/AN/AN/A25 FN/A7768
18/01/2009:4522012N/AN/A29.9434(F), 1(C)25(F), -4(C)69%10CLRN/AN/AN/A25 FN/A7763
18/01/2009:4021012N/AN/A29.9434(F), 1(C)25(F), -4(C)69%10CLRN/AN/AN/A25 FN/A7758
18/01/2009:3521014N/AN/A29.9434(F), 1(C)25(F), -4(C)69%10CLRN/AN/AN/A25 FN/A7753
18/01/2009:3021015N/AN/A29.9434(F), 1(C)25(F), -4(C)69%10CLRN/AN/AN/A24 FN/A7748
18/01/2009:252101417N/A29.9534(F), 1(C)25(F), -4(C)69%10CLRN/AN/AN/A25 FN/A7743
18/01/2009:2021013N/AN/A29.9534(F), 1(C)25(F), -4(C)69%10CLRN/AN/AN/A25 FN/A7738
18/01/2009:152101319N/A29.9534(F), 1(C)25(F), -4(C)69%10CLRN/AN/AN/A25 FN/A7733
18/01/2009:102101419N/A29.9534(F), 1(C)25(F), -4(C)69%10CLRN/AN/AN/A25 FN/A7728
18/01/2009:052101320N/A29.9534(F), 1(C)25(F), -4(C)69%10CLRN/AN/AN/A25 FN/A7723
18/01/2009:002101420N/A29.9534(F), 1(C)25(F), -4(C)69%10CLRN/AN/AN/A25 FN/A7718
18/01/2008:552101219N/A29.9534(F), 1(C)25(F), -4(C)69%10CLRN/AN/AN/A25 FN/A7713
18/01/2008:502101419N/A29.9534(F), 1(C)25(F), -4(C)69%10CLRN/AN/AN/A25 FN/A7708
18/01/2008:452101418N/A29.9534(F), 1(C)25(F), -4(C)69%10CLRN/AN/AN/A25 FN/A7703
18/01/2008:402201318N/A29.9534(F), 1(C)26(F), -3(C)75%10CLRN/AN/AN/A25 FN/A7698
18/01/2008:3522013N/AN/A29.9534(F), 1(C)26(F), -3(C)75%10CLRN/AN/AN/A25 FN/A7693
18/01/2008:3021014N/AN/A29.9535(F), 2(C)26(F), -3(C)69%10CLRN/AN/AN/A26 FN/A7688
18/01/2008:2521015N/AN/A29.9534(F), 1(C)26(F), -3(C)75%10CLRN/AN/AN/A24 FN/A7683
18/01/2008:2021013N/AN/A29.9535(F), 2(C)26(F), -3(C)69%10CLRN/AN/AN/A26 FN/A7678
18/01/2008:1521014N/AN/A29.9534(F), 1(C)26(F), -3(C)75%10CLRN/AN/AN/A25 FN/A7673
18/01/2008:1021013N/AN/A29.9534(F), 1(C)26(F), -3(C)75%10CLRN/AN/AN/A25 FN/A7668
18/01/2008:0522014N/AN/A29.9534(F), 1(C)26(F), -3(C)75%10CLRN/AN/AN/A25 FN/A7663
18/01/2008:0022012N/AN/A29.9534(F), 1(C)26(F), -3(C)75%10CLRN/AN/AN/A25 FN/A7658
18/01/2007:5522013N/AN/A29.9534(F), 1(C)26(F), -3(C)75%10CLRN/AN/AN/A25 FN/A7653
18/01/2007:5022013N/AN/A29.9534(F), 1(C)26(F), -3(C)75%10CLRN/AN/AN/A25 FN/A7648
18/01/2007:4522012N/AN/A29.9435(F), 2(C)26(F), -3(C)69%10CLRN/AN/AN/A27 FN/A7643
18/01/2007:4022013N/AN/A29.9435(F), 2(C)26(F), -3(C)69%10CLRN/AN/AN/A26 FN/A7638
18/01/2007:352201220N/A29.9335(F), 2(C)26(F), -3(C)69%10CLRN/AN/AN/A27 FN/A7633
18/01/2007:302101323N/A29.9335(F), 2(C)26(F), -3(C)69%10CLRN/AN/AN/A26 FN/A7628
18/01/2007:252101523N/A29.9335(F), 2(C)26(F), -3(C)69%10CLRN/AN/AN/A25 FN/A7623
18/01/2007:202201521N/A29.9335(F), 2(C)26(F), -3(C)69%10CLRN/AN/AN/A25 FN/A7618
18/01/2007:152201421N/A29.9335(F), 2(C)26(F), -3(C)69%10CLRN/AN/AN/A26 FN/A7613
18/01/2007:102101621N/A29.9235(F), 2(C)27(F), -3(C)69%10CLRN/AN/AN/A25 FN/A7608
18/01/2007:052201522N/A29.9236(F), 2(C)27(F), -3(C)69%10CLRN/AN/AN/A27 FN/A7603
18/01/2007:002101522N/A29.9235(F), 2(C)27(F), -3(C)69%10CLRN/AN/AN/A25 FN/A7598
18/01/2006:5522015N/AN/A29.9235(F), 2(C)27(F), -3(C)69%10CLRN/AN/AN/A25 FN/A7593
18/01/2006:5022014N/AN/A29.9235(F), 2(C)27(F), -3(C)69%10CLRN/AN/AN/A26 FN/A7588
18/01/2006:452201320N/A29.9335(F), 2(C)27(F), -3(C)69%10CLRN/AN/AN/A26 FN/A7583
18/01/2006:402201520N/A29.9235(F), 2(C)27(F), -3(C)69%10CLRN/AN/AN/A25 FN/A7578
18/01/2006:352201319N/A29.9235(F), 2(C)27(F), -3(C)69%10CLRN/AN/AN/A26 FN/A7573
18/01/2006:302201519N/A29.9235(F), 2(C)27(F), -3(C)69%10CLRN/AN/AN/A25 FN/A7568
18/01/2006:2522014N/AN/A29.9236(F), 2(C)27(F), -3(C)69%10CLRN/AN/AN/A27 FN/A7563
18/01/2006:202201420N/A29.9236(F), 2(C)27(F), -3(C)69%10CLRN/AN/AN/A27 FN/A7558
18/01/2006:152201520N/A29.9235(F), 2(C)27(F), -3(C)69%10CLRN/AN/AN/A25 FN/A7553
18/01/2006:102201419N/A29.9236(F), 2(C)27(F), -3(C)69%10CLRN/AN/AN/A27 FN/A7548
18/01/2006:052201519N/A29.9236(F), 2(C)27(F), -3(C)69%10CLRN/AN/AN/A27 FN/A7543
18/01/2006:002201523N/A29.9136(F), 2(C)27(F), -3(C)69%10CLRN/AN/AN/A27 FN/A7538
18/01/2005:552101723N/A29.9136(F), 2(C)27(F), -3(C)69%10CLRN/AN/AN/A26 FN/A7533
18/01/2005:502101520N/A29.9135(F), 2(C)27(F), -3(C)69%10CLRN/AN/AN/A25 FN/A7528
18/01/2005:452101520N/A29.9135(F), 2(C)27(F), -3(C)69%10CLRN/AN/AN/A25 FN/A7523
18/01/2005:402101218N/A29.9134(F), 1(C)27(F), -3(C)75%10CLRN/AN/AN/A25 FN/A7518
18/01/2005:3521012N/AN/A29.9134(F), 1(C)27(F), -3(C)75%10CLRN/AN/AN/A25 FN/A7513
18/01/2005:3021013N/AN/A29.9134(F), 1(C)27(F), -3(C)75%10CLRN/AN/AN/A25 FN/A7508
18/01/2005:2521012N/AN/A29.9133(F), 1(C)26(F), -3(C)75%7CLRN/AN/AN/A24 FN/A7503
18/01/2005:2020012N/AN/A29.9133(F), 1(C)26(F), -3(C)75%7CLRN/AN/AN/A24 FN/A7498
18/01/2005:1520012N/AN/A29.9133(F), 1(C)26(F), -3(C)75%10CLRN/AN/AN/A24 FN/A7493
18/01/2005:1020013N/AN/A29.9133(F), 1(C)26(F), -3(C)75%10CLRN/AN/AN/A24 FN/A7488
18/01/2005:0520011N/AN/A29.9233(F), 1(C)26(F), -3(C)75%10CLRN/AN/AN/A24 FN/A7483
18/01/2005:0020012N/AN/A29.9233(F), 1(C)26(F), -3(C)75%10CLRN/AN/AN/A24 FN/A7478
18/01/2004:552101218N/A29.9233(F), 1(C)26(F), -3(C)75%10CLRN/AN/AN/A24 FN/A7473
18/01/2004:502001318N/A29.9233(F), 1(C)26(F), -3(C)75%10CLRN/AN/AN/A24 FN/A7468
18/01/2004:452001215N/A29.9233(F), 1(C)26(F), -3(C)75%10CLRN/AN/AN/A24 FN/A7463
18/01/2004:402001115N/A29.9233(F), 1(C)26(F), -3(C)75%10CLRN/AN/AN/A24 FN/A7458
18/01/2004:3520010N/AN/A29.9333(F), 1(C)26(F), -3(C)75%10CLRN/AN/AN/A25 FN/A7453
18/01/2004:3020011N/AN/A29.9333(F), 1(C)26(F), -3(C)75%10CLRN/AN/AN/A24 FN/A7448
18/01/2004:2520012N/AN/A29.9333(F), 1(C)26(F), -3(C)75%10CLRN/AN/AN/A24 FN/A7443
18/01/2004:2020013N/AN/A29.9333(F), 1(C)26(F), -3(C)75%10CLRN/AN/AN/A24 FN/A7438
18/01/2004:1520012N/AN/A29.9333(F), 1(C)26(F), -3(C)75%10CLRN/AN/AN/A24 FN/A7433
18/01/2004:102001218N/A29.9333(F), 1(C)26(F), -3(C)75%10CLRN/AN/AN/A24 FN/A7428
18/01/2004:052001318N/A29.9333(F), 1(C)26(F), -3(C)75%10CLRN/AN/AN/A24 FN/A7423
18/01/2004:002101318N/A29.9333(F), 1(C)26(F), -3(C)75%10CLRN/AN/AN/A24 FN/A7418
18/01/2003:5520010N/AN/A29.9333(F), 1(C)26(F), -3(C)75%10CLRN/AN/AN/A25 FN/A7413
18/01/2003:5020012N/AN/A29.9333(F), 1(C)26(F), -3(C)75%10CLRN/AN/AN/A24 FN/A7408
18/01/2003:4520011N/AN/A29.9333(F), 1(C)26(F), -3(C)75%10CLRN/AN/AN/A24 FN/A7403
18/01/2003:4020012N/AN/A29.9333(F), 1(C)26(F), -3(C)75%10CLRN/AN/AN/A24 FN/A7398
18/01/2003:352001318N/A29.9333(F), 1(C)26(F), -3(C)75%10CLRN/AN/AN/A24 FN/A7393
18/01/2003:302001318N/A29.9334(F), 1(C)26(F), -3(C)75%10CLRN/AN/AN/A25 FN/A7388
18/01/2003:2520012N/AN/A29.9234(F), 1(C)26(F), -3(C)75%10CLRN/AN/AN/A25 FN/A7383
18/01/2003:2020014N/AN/A29.9234(F), 1(C)26(F), -3(C)75%10CLRN/AN/AN/A25 FN/A7378
18/01/2003:152001420N/A29.9234(F), 1(C)26(F), -3(C)75%10CLRN/AN/AN/A25 FN/A7373
18/01/2003:102001520N/A29.9234(F), 1(C)26(F), -3(C)75%10CLRN/AN/AN/A24 FN/A7368
18/01/2003:0520016N/AN/A29.9334(F), 1(C)26(F), -3(C)75%10CLRN/AN/AN/A24 FN/A7363
18/01/2003:0020015N/AN/A29.9234(F), 1(C)26(F), -3(C)75%10CLRN/AN/AN/A24 FN/A7358
18/01/2002:5520015N/AN/A29.9334(F), 1(C)26(F), -3(C)75%10CLRN/AN/AN/A24 FN/A7353
18/01/2002:502001620N/A29.9334(F), 1(C)26(F), -3(C)75%10CLRN/AN/AN/A24 FN/A7348
18/01/2002:452001520N/A29.9334(F), 1(C)26(F), -3(C)75%10CLRN/AN/AN/A24 FN/A7343
18/01/2002:402001620N/A29.9334(F), 1(C)26(F), -3(C)75%10CLRN/AN/AN/A24 FN/A7338
18/01/2002:3520014N/AN/A29.9334(F), 1(C)26(F), -3(C)75%10CLRN/AN/AN/A25 FN/A7333
18/01/2002:3020016N/AN/A29.9334(F), 1(C)26(F), -3(C)75%10CLRN/AN/AN/A24 FN/A7328
18/01/2002:2520015N/AN/A29.9334(F), 1(C)26(F), -3(C)75%10CLRN/AN/AN/A24 FN/A7323
18/01/2002:2020016N/AN/A29.9334(F), 1(C)26(F), -3(C)75%10CLRN/AN/AN/A24 FN/A7318
18/01/2002:1520014N/AN/A29.9334(F), 1(C)26(F), -3(C)75%10CLRN/AN/AN/A25 FN/A7313
18/01/2002:102001321N/A29.9334(F), 1(C)26(F), -3(C)75%10CLRN/AN/AN/A25 FN/A7308
18/01/2002:052001721N/A29.9334(F), 1(C)26(F), -3(C)75%10CLRN/AN/AN/A23 FN/A7303
18/01/2002:002001422N/A29.9334(F), 1(C)25(F), -4(C)69%10CLRN/AN/AN/A25 FN/A7298
18/01/2001:552001822N/A29.9334(F), 1(C)25(F), -4(C)69%10CLRN/AN/AN/A23 FN/A7293
18/01/2001:502001419N/A29.9334(F), 1(C)25(F), -4(C)69%10CLRN/AN/AN/A25 FN/A7288
18/01/2001:4519015N/AN/A29.9334(F), 1(C)25(F), -4(C)69%10CLRN/AN/AN/A24 FN/A7283
18/01/2001:401901419N/A29.9334(F), 1(C)25(F), -4(C)69%10CLRN/AN/AN/A25 FN/A7278
18/01/2001:352001519N/A29.9334(F), 1(C)25(F), -4(C)69%10CLRN/AN/AN/A24 FN/A7273
18/01/2001:302001422N/A29.9334(F), 1(C)25(F), -4(C)69%10CLRN/AN/AN/A25 FN/A7268
18/01/2001:252001622N/A29.9334(F), 1(C)25(F), -4(C)69%10CLRN/AN/AN/A24 FN/A7263
18/01/2001:201901420N/A29.9334(F), 1(C)24(F), -4(C)69%10CLRN/AN/AN/A25 FN/A7258
18/01/2001:151901521N/A29.9334(F), 1(C)24(F), -4(C)69%10CLRN/AN/AN/A24 FN/A7253
18/01/2001:101901621N/A29.9334(F), 1(C)24(F), -4(C)69%10CLRN/AN/AN/A24 FN/A7248
18/01/2001:051901721N/A29.9334(F), 1(C)24(F), -4(C)69%10CLRN/AN/AN/A23 FN/A7243
18/01/2001:001901521N/A29.9334(F), 1(C)24(F), -4(C)69%10CLRN/AN/AN/A24 FN/A7238
18/01/2000:5519015N/AN/A29.9334(F), 1(C)24(F), -4(C)69%10CLRN/AN/AN/A24 FN/A7233
18/01/2000:501901419N/A29.9334(F), 1(C)24(F), -4(C)69%10CLRN/AN/AN/A25 FN/A7228
18/01/2000:451901519N/A29.9434(F), 1(C)24(F), -4(C)69%10CLRN/AN/AN/A24 FN/A7223
18/01/2000:4019016N/AN/A29.9434(F), 1(C)24(F), -4(C)69%10CLRN/AN/AN/A24 FN/A7218
18/01/2000:3519015N/AN/A29.9434(F), 1(C)24(F), -4(C)69%10CLRN/AN/AN/A24 FN/A7213
18/01/2000:3019015N/AN/A29.9434(F), 1(C)24(F), -4(C)69%10CLRN/AN/AN/A24 FN/A7208
18/01/2000:251901520N/A29.9434(F), 1(C)24(F), -4(C)69%10CLRN/AN/AN/A24 FN/A7203
18/01/2000:201901520N/A29.9434(F), 1(C)24(F), -4(C)69%10CLRN/AN/AN/A24 FN/A7198
18/01/2000:1519015N/AN/A29.9434(F), 1(C)24(F), -4(C)69%10CLRN/AN/AN/A24 FN/A7193
18/01/2000:1019014N/AN/A29.9434(F), 1(C)24(F), -4(C)69%10CLRN/AN/AN/A25 FN/A7188
18/01/2000:0519015N/AN/A29.9434(F), 1(C)24(F), -4(C)69%10CLRN/AN/AN/A24 FN/A7183
18/01/2000:001901418N/A29.9434(F), 1(C)24(F), -4(C)69%10CLRN/AN/AN/A25 FN/A7178
18/01/1923:551901318N/A29.9435(F), 2(C)24(F), -4(C)64%10CLRN/AN/AN/A26 FN/A7173
18/01/1923:5019015N/AN/A29.9435(F), 2(C)24(F), -4(C)64%10CLRN/AN/AN/A25 FN/A7168
18/01/1923:4519014N/AN/A29.9535(F), 2(C)24(F), -4(C)64%10CLRN/AN/AN/A26 FN/A7163
18/01/1923:401901418N/A29.9535(F), 2(C)24(F), -4(C)64%10CLRN/AN/AN/A26 FN/A7158
18/01/1923:351901418N/A29.9535(F), 2(C)24(F), -4(C)64%10CLRN/AN/AN/A26 FN/A7153
18/01/1923:3019013N/AN/A29.9535(F), 2(C)24(F), -4(C)64%10CLRN/AN/AN/A26 FN/A7148
18/01/1923:252001219N/A29.9535(F), 2(C)24(F), -4(C)64%10CLRN/AN/AN/A27 FN/A7143
18/01/1923:201901419N/A29.9535(F), 2(C)24(F), -4(C)64%10CLRN/AN/AN/A26 FN/A7138
18/01/1923:151901318N/A29.9535(F), 2(C)24(F), -4(C)64%10CLRN/AN/AN/A26 FN/A7133
18/01/1923:101901319N/A29.9535(F), 2(C)24(F), -4(C)64%10CLRN/AN/AN/A26 FN/A7128
18/01/1923:051901419N/A29.9535(F), 2(C)24(F), -4(C)64%10CLRN/AN/AN/A26 FN/A7123
18/01/1923:001901419N/A29.9535(F), 2(C)24(F), -4(C)64%10CLRN/AN/AN/A26 FN/A7118
18/01/1922:5519013N/AN/A29.9535(F), 2(C)24(F), -4(C)64%10CLRN/AN/AN/A26 FN/A7113
18/01/1922:5019014N/AN/A29.9535(F), 2(C)24(F), -4(C)64%10CLRN/AN/AN/A26 FN/A7108
18/01/1922:4519014N/AN/A29.9435(F), 2(C)24(F), -4(C)64%10CLRN/AN/AN/A26 FN/A7103
18/01/1922:4019014N/AN/A29.9435(F), 2(C)24(F), -4(C)64%10CLRN/AN/AN/A26 FN/A7098
18/01/1922:3519014N/AN/A29.9535(F), 2(C)24(F), -4(C)64%10CLRN/AN/AN/A26 FN/A7093
18/01/1922:301901518N/A29.9535(F), 2(C)24(F), -4(C)64%10CLRN/AN/AN/A25 FN/A7088
18/01/1922:251901518N/A29.9535(F), 2(C)24(F), -4(C)64%10CLRN/AN/AN/A25 FN/A7083
18/01/1922:2019014N/AN/A29.9535(F), 2(C)24(F), -4(C)64%10CLRN/AN/AN/A26 FN/A7078
18/01/1922:1519012N/AN/A29.9535(F), 2(C)24(F), -4(C)64%10CLRN/AN/AN/A27 FN/A7073
18/01/1922:101901218N/A29.9636(F), 2(C)24(F), -4(C)64%10CLRN/AN/AN/A28 FN/A7068
18/01/1922:051901418N/A29.9636(F), 2(C)24(F), -4(C)64%10CLRN/AN/AN/A27 FN/A7063
18/01/1922:0020011N/AN/A29.9636(F), 2(C)24(F), -4(C)64%10CLRN/AN/AN/A28 FN/A7058
18/01/1921:552001218N/A29.9636(F), 2(C)24(F), -4(C)64%10CLRN/AN/AN/A28 FN/A7053
18/01/1921:501901219N/A29.9636(F), 2(C)24(F), -4(C)64%10CLRN/AN/AN/A28 FN/A7048
18/01/1921:451901219N/A29.9636(F), 2(C)24(F), -4(C)64%10CLRN/AN/AN/A28 FN/A7043
18/01/1921:401901319N/A29.9636(F), 2(C)24(F), -4(C)64%10CLRN/AN/AN/A27 FN/A7038
18/01/1921:351901419N/A29.9536(F), 2(C)24(F), -4(C)64%10CLRN/AN/AN/A27 FN/A7033
18/01/1921:3019014N/AN/A29.9536(F), 2(C)24(F), -4(C)64%10CLRN/AN/AN/A27 FN/A7028
18/01/1921:2519013N/AN/A29.9636(F), 2(C)24(F), -4(C)64%10CLRN/AN/AN/A27 FN/A7023
18/01/1921:201901317N/A29.9636(F), 2(C)24(F), -4(C)64%10CLRN/AN/AN/A27 FN/A7018
18/01/1921:1519015N/AN/A29.9636(F), 2(C)24(F), -4(C)64%10CLRN/AN/AN/A27 FN/A7013
18/01/1921:1019012N/AN/A29.9636(F), 2(C)24(F), -4(C)64%10CLRN/AN/AN/A28 FN/A7008
18/01/1921:0519012N/AN/A29.9635(F), 2(C)24(F), -4(C)64%10CLRN/AN/AN/A27 FN/A7003
18/01/1921:0019014N/AN/A29.9635(F), 2(C)24(F), -4(C)64%10CLRN/AN/AN/A26 FN/A6998
18/01/1920:5519015N/AN/A29.9635(F), 2(C)24(F), -4(C)64%10CLRN/AN/AN/A25 FN/A6993
18/01/1920:5019012N/AN/A29.9635(F), 2(C)24(F), -4(C)64%10CLRN/AN/AN/A27 FN/A6988
18/01/1920:4519014N/AN/A29.9636(F), 2(C)24(F), -4(C)64%10CLRN/AN/AN/A27 FN/A6983
18/01/1920:4019014N/AN/A29.9636(F), 2(C)24(F), -4(C)64%10CLRN/AN/AN/A27 FN/A6978
18/01/1920:351901520N/A29.9636(F), 2(C)23(F), -5(C)60%10CLRN/AN/AN/A27 FN/A6973
18/01/1920:302001520N/A29.9735(F), 2(C)24(F), -4(C)64%10CLRN/AN/AN/A25 FN/A6968
18/01/1920:252001419N/A29.9735(F), 2(C)23(F), -5(C)60%10CLRN/AN/AN/A26 FN/A6963
18/01/1920:202001519N/A29.9735(F), 2(C)24(F), -4(C)64%10CLRN/AN/AN/A25 FN/A6958
18/01/1920:152001519N/A29.9735(F), 2(C)24(F), -4(C)64%10CLRN/AN/AN/A25 FN/A6953
18/01/1920:1020012N/AN/A29.9735(F), 2(C)24(F), -4(C)64%10CLRN/AN/AN/A27 FN/A6948
18/01/1920:0520011N/AN/A29.9735(F), 2(C)24(F), -4(C)64%7CLRN/AN/AN/A27 FN/A6943
18/01/1920:002001119N/A29.9735(F), 2(C)23(F), -5(C)60%7CLRN/AN/AN/A27 FN/A6938
18/01/1919:552001519N/A29.9735(F), 2(C)24(F), -4(C)64%10CLRN/AN/AN/A25 FN/A6933
18/01/1919:5019011N/AN/A29.9735(F), 2(C)24(F), -4(C)64%7CLRN/AN/AN/A27 FN/A6928
18/01/1919:452001217N/A29.9735(F), 2(C)24(F), -4(C)64%7CLRN/AN/AN/A27 FN/A6923
18/01/1919:402001117N/A29.9735(F), 2(C)23(F), -5(C)60%7CLRN/AN/AN/A27 FN/A6918
18/01/1919:351901316N/A29.9735(F), 2(C)23(F), -5(C)60%10CLRN/AN/AN/A26 FN/A6913
18/01/1919:3019014N/AN/A29.9835(F), 2(C)23(F), -5(C)60%10CLRN/AN/AN/A26 FN/A6908
18/01/1919:2520012N/AN/A29.9835(F), 2(C)23(F), -5(C)60%10CLRN/AN/AN/A27 FN/A6903
18/01/1919:202001217N/A29.9835(F), 2(C)23(F), -5(C)60%10CLRN/AN/AN/A27 FN/A6898
18/01/1919:151901417N/A29.9835(F), 2(C)23(F), -5(C)60%10CLRN/AN/AN/A26 FN/A6893
18/01/1919:1020011N/AN/A29.9834(F), 1(C)23(F), -5(C)64%10CLRN/AN/AN/A26 FN/A6888
18/01/1919:052001216N/A29.9834(F), 1(C)23(F), -5(C)64%10CLRN/AN/AN/A25 FN/A6883
18/01/1919:002001217N/A29.9834(F), 1(C)23(F), -5(C)64%10CLRN/AN/AN/A25 FN/A6878
18/01/1918:552001218N/A29.9834(F), 1(C)22(F), -6(C)59%10CLRN/AN/AN/A25 FN/A6873
18/01/1918:502001218N/A29.9834(F), 1(C)23(F), -5(C)64%10CLRN/AN/AN/A25 FN/A6868
18/01/1918:4520014N/AN/A29.9833(F), 1(C)22(F), -6(C)59%10CLRN/AN/AN/A23 FN/A6863
18/01/1918:4019014N/AN/A29.9933(F), 1(C)22(F), -6(C)59%10CLRN/AN/AN/A23 FN/A6858
18/01/1918:3519014N/AN/A29.9933(F), 1(C)22(F), -6(C)59%10CLRN/AN/AN/A23 FN/A6853
18/01/1918:3019014N/AN/A29.9933(F), 1(C)22(F), -6(C)59%10CLRN/AN/AN/A23 FN/A6848
18/01/1918:251901319N/A29.9933(F), 1(C)22(F), -6(C)59%10CLRN/AN/AN/A24 FN/A6843
18/01/1918:201901319N/A29.9933(F), 1(C)22(F), -6(C)59%10CLRN/AN/AN/A24 FN/A6838
18/01/1918:1519013N/AN/A30.0033(F), 1(C)22(F), -6(C)59%10CLRN/AN/AN/A24 FN/A6833
18/01/1918:1020012N/AN/A30.0033(F), 1(C)22(F), -6(C)59%10CLRN/AN/AN/A24 FN/A6828
18/01/1918:0520013N/AN/A30.0133(F), 1(C)22(F), -6(C)59%10CLRN/AN/AN/A24 FN/A6823
18/01/1918:0020013N/AN/A30.0132(F), 0(C)22(F), -6(C)64%10CLRN/AN/AN/A22 FN/A6818
18/01/1917:5520012N/AN/A30.0232(F), 0(C)21(F), -6(C)64%10CLRN/AN/AN/A23 FN/A6813
18/01/1917:5019012N/AN/A30.0232(F), 0(C)21(F), -6(C)64%10CLRN/AN/AN/A23 FN/A6808
18/01/1917:4519013N/AN/A30.0232(F), 0(C)21(F), -6(C)64%10CLRN/AN/AN/A22 FN/A6803
18/01/1917:4020013N/AN/A30.0232(F), 0(C)21(F), -6(C)64%10CLRN/AN/AN/A22 FN/A6798
18/01/1917:3520013N/AN/A30.0332(F), 0(C)21(F), -6(C)64%10CLRN/AN/AN/A22 FN/A6793
18/01/1917:3020013N/AN/A30.0432(F), 0(C)21(F), -6(C)64%10CLRN/AN/AN/A22 FN/A6788
18/01/1917:2520012N/AN/A30.0432(F), 0(C)20(F), -7(C)59%10CLRN/AN/AN/A23 FN/A6783
18/01/1917:2021012N/AN/A30.0532(F), 0(C)20(F), -7(C)59%10CLRN/AN/AN/A23 FN/A6778
18/01/1917:1520013N/AN/A30.0532(F), 0(C)21(F), -6(C)64%10CLRN/AN/AN/A22 FN/A6773
18/01/1917:1020010N/AN/A30.0531(F), -1(C)21(F), -6(C)69%10CLRN/AN/AN/A22 FN/A6768
18/01/1917:0520011N/AN/A30.0531(F), -1(C)20(F), -7(C)64%10CLRN/AN/AN/A22 FN/A6763
18/01/1917:0020012N/AN/A30.0531(F), -1(C)20(F), -7(C)64%10CLRN/AN/AN/A22 FN/A6758
18/01/1916:5520012N/AN/A30.0531(F), -1(C)20(F), -7(C)64%10CLRN/AN/AN/A22 FN/A6753
18/01/1916:5020012N/AN/A30.0631(F), -1(C)20(F), -7(C)64%10CLRN/AN/AN/A22 FN/A6748
18/01/1916:4520012N/AN/A30.0631(F), -1(C)20(F), -7(C)64%10CLRN/AN/AN/A22 FN/A6743
18/01/1916:402101217N/A30.0630(F), -1(C)19(F), -7(C)64%7CLRN/AN/AN/A20 FN/A6738
18/01/1916:352001317N/A30.0630(F), -1(C)19(F), -7(C)64%7CLRN/AN/AN/A20 FN/A6733
18/01/1916:3021012N/AN/A30.0630(F), -1(C)19(F), -7(C)64%10CLRN/AN/AN/A20 FN/A6728
18/01/1916:2521014N/AN/A30.0630(F), -1(C)19(F), -7(C)64%10CLRN/AN/AN/A19 FN/A6723
18/01/1916:2021012N/AN/A30.0630(F), -1(C)19(F), -7(C)64%10CLRN/AN/AN/A20 FN/A6718
18/01/1916:1520009N/AN/A30.0629(F), -2(C)19(F), -7(C)69%10CLRN/AN/AN/A21 FN/A6713
18/01/1916:1020012N/AN/A30.0629(F), -2(C)19(F), -7(C)69%10CLRN/AN/AN/A19 FN/A6708
18/01/1916:0520011N/AN/A30.0629(F), -2(C)19(F), -7(C)69%10CLRN/AN/AN/A19 FN/A6703
18/01/1916:0020011N/AN/A30.0629(F), -2(C)18(F), -8(C)63%10CLRN/AN/AN/A19 FN/A6698
18/01/1915:5520010N/AN/A30.0629(F), -2(C)18(F), -8(C)63%10CLRN/AN/AN/A20 FN/A6693
18/01/1915:5020010N/AN/A30.0628(F), -2(C)18(F), -8(C)63%10CLRN/AN/AN/A19 FN/A6688
18/01/1915:4520011N/AN/A30.0628(F), -2(C)18(F), -8(C)63%10CLRN/AN/AN/A18 FN/A6683
18/01/1915:4021011N/AN/A30.0728(F), -2(C)18(F), -8(C)63%10CLRN/AN/AN/A18 FN/A6678
18/01/1915:3520011N/AN/A30.0727(F), -3(C)17(F), -8(C)68%10CLRN/AN/AN/A17 FN/A6673
18/01/1915:302001218N/A30.0727(F), -3(C)17(F), -8(C)68%10CLRN/AN/AN/A16 FN/A6668
18/01/1915:252001318N/A30.0727(F), -3(C)17(F), -8(C)68%10CLRN/AN/AN/A16 FN/A6663
18/01/1915:2020012N/AN/A30.0727(F), -3(C)17(F), -8(C)68%10CLRN/AN/AN/A16 FN/A6658
18/01/1915:152001316N/A30.0727(F), -3(C)17(F), -8(C)68%10CLRN/AN/AN/A16 FN/A6653
18/01/1915:102001116N/A30.0726(F), -3(C)17(F), -8(C)68%10CLRN/AN/AN/A16 FN/A6648
18/01/1915:0520011N/AN/A30.0726(F), -3(C)17(F), -8(C)68%10CLRN/AN/AN/A16 FN/A6643
18/01/1915:0020011N/AN/A30.0626(F), -3(C)17(F), -8(C)68%10CLRN/AN/AN/A16 FN/A6638
18/01/1914:5520011N/AN/A30.0726(F), -3(C)16(F), -9(C)63%10CLRN/AN/AN/A16 FN/A6633
18/01/1914:5020012N/AN/A30.0726(F), -3(C)16(F), -9(C)63%10CLRN/AN/AN/A15 FN/A6628
18/01/1914:4520011N/AN/A30.0725(F), -4(C)16(F), -9(C)68%10CLRN/AN/AN/A14 FN/A6623
18/01/1914:4019012N/AN/A30.0725(F), -4(C)16(F), -9(C)68%10CLRN/AN/AN/A14 FN/A6618
18/01/1914:3520011N/AN/A30.0725(F), -4(C)16(F), -9(C)68%10CLRN/AN/AN/A14 FN/A6613
18/01/1914:3019010N/AN/A30.0725(F), -4(C)15(F), -9(C)68%10CLRN/AN/AN/A15 FN/A6608
18/01/1914:2519010N/AN/A30.0724(F), -4(C)15(F), -9(C)68%10CLRN/AN/AN/A14 FN/A6603
18/01/1914:2019012N/AN/A30.0724(F), -4(C)15(F), -9(C)68%10CLRN/AN/AN/A13 FN/A6598
18/01/1914:1519010N/AN/A30.0624(F), -4(C)15(F), -9(C)68%10CLRN/AN/AN/A14 FN/A6593
18/01/1914:1019011N/AN/A30.0624(F), -4(C)15(F), -9(C)68%10CLRN/AN/AN/A13 FN/A6588
18/01/1914:0519010N/AN/A30.0624(F), -4(C)15(F), -9(C)68%10CLRN/AN/AN/A14 FN/A6583
18/01/1914:0019012N/AN/A30.0624(F), -4(C)15(F), -9(C)68%10CLRN/AN/AN/A13 FN/A6578